Weather History for Alexandria, LA

Change the Weather History Date:

Tuesday, January 28, 2014

  Actual Average Record
Temperature  
Mean Temperature 27 °F 49 °F  
Max Temperature 32 °F 60 °F 82 °F (1957)
Min Temperature 22 °F 38 °F 17 °F (1897)
Degree Days  
Heating Degree Days 38 16  
Month to date heating degree days 603 448  
Since 1 July heating degree days 1488 1237  
Moisture  
Dew Point 17 °F    
Average Humidity 64    
Maximum Humidity 92    
Minimum Humidity 36    
Precipitation  
Precipitation T in 0.20 in 3.47 in (1994)
Month to date precipitation 1.52 4.59  
Year to date precipitation 1.52 4.59  
Snow  
Snow 1.20 in - 1.00 in (1904)
Month to date snowfall 4.2  
Since 1 July snowfall 4.2  
Snow Depth 0.00 in    
Sea Level Pressure  
Sea Level Pressure 30.35 in    
Wind  
Wind Speed 9 mph (NNE)    
Max Wind Speed 22 mph    
Max Gust Speed 39 mph    
Visibility 7 miles    
Events Rain , Snow    
T = Trace of Precipitation, MM = Missing Value Source: NWS Daily Summary

Daily Weather History Graph

Daily Weather History Graph

Search for Another Location

Airport:

Trip Planner

Search our weather history database for the weather conditions in past years. The results will help you decide how hot, cold, wet, or windy it might be!

Date:

Astronomy

Jan. 28, 2014 Rise Set
Actual Time 7:04 AM CST 5:41 PM CST
Civil Twilight 6:39 AM CST 6:07 PM CST
Nautical Twilight 6:10 AM CST 6:36 PM CST
Astronomical Twilight 5:41 AM CST 7:05 PM CST
Moon 4:44 AM CST (1/28) 3:34 PM CST (1/28)
Length of Visible Light 11h 28m
Length of Day
10h 36m
Waning Crescent, 7% of the Moon is Illuminated
Jan 28
Waning Crescent
Jan 30
New
Feb 6
First Quarter
Feb 14
Full
Feb 22
Last Quarter

Hourly Weather History & Observations

Time (CST) Temp. Windchill Dew Point Humidity Pressure Visibility Wind Dir Wind Speed Gust Speed Precip Events Conditions
12:53 AM 32.0 °F 24.2 °F 9.0 °F 38% 30.24 in 10.0 mi NNE 9.2 mph - N/A   Partly Cloudy
1:53 AM 30.0 °F 21.7 °F 10.0 °F 43% 30.23 in 10.0 mi NNE 9.2 mph 17.3 mph 0.00 in   Overcast
2:53 AM 28.0 °F 18.6 °F 15.1 °F 58% 30.26 in 9.0 mi North 10.4 mph 19.6 mph 0.00 in   Overcast
3:40 AM 27.0 °F 15.6 °F 18.0 °F 69% 30.25 in 8.0 mi NNE 13.8 mph 17.3 mph N/A Rain Light Freezing Rain
3:53 AM 26.1 °F 16.2 °F 18.0 °F 71% 30.27 in 8.0 mi NNE 10.4 mph - N/A Rain Light Freezing Rain
4:10 AM 26.1 °F 16.2 °F 18.0 °F 71% 30.24 in 8.0 mi NNE 10.4 mph 20.7 mph N/A   Overcast
4:32 AM 26.1 °F 15.6 °F 19.0 °F 75% 30.24 in 8.0 mi NE 11.5 mph - N/A Rain Light Freezing Rain
4:53 AM 26.1 °F 14.5 °F 18.0 °F 71% 30.27 in 8.0 mi NNE 13.8 mph 20.7 mph N/A Rain Light Freezing Rain
5:50 AM 24.8 °F 11.9 °F 19.4 °F 80% 30.28 in 10.0 mi North 16.1 mph 25.3 mph N/A Rain Light Freezing Rain
5:53 AM 25.0 °F - 19.0 °F 78% 30.30 in 9.0 mi North - - N/A Rain Light Freezing Rain
6:04 AM 25.0 °F 13.6 °F 19.0 °F 78% 30.29 in 9.0 mi North 12.7 mph 25.3 mph N/A Rain Light Freezing Rain
6:51 AM 23.0 °F 10.1 °F 17.6 °F 80% 30.32 in 7.0 mi North 15.0 mph 29.9 mph N/A   Overcast
6:53 AM 23.0 °F 10.6 °F 17.1 °F 78% 30.34 in 7.0 mi North 13.8 mph 29.9 mph N/A   Overcast
7:34 AM 21.9 °F 9.2 °F 18.0 °F 85% 30.32 in 6.0 mi NNE 13.8 mph 21.9 mph N/A   Overcast
7:53 AM 21.9 °F 9.8 °F 17.1 °F 82% 30.36 in 4.0 mi North 12.7 mph - N/A Rain Light Freezing Rain
8:04 AM 21.9 °F 10.4 °F 18.0 °F 85% 30.34 in 6.0 mi NNE 11.5 mph - N/A   Overcast
8:26 AM 21.9 °F 11.7 °F 18.0 °F 85% 30.34 in 1.8 mi North 9.2 mph - N/A Snow Light Snow
8:34 AM 21.9 °F 10.4 °F 18.0 °F 85% 30.34 in 0.8 mi North 11.5 mph - N/A Snow Light Snow
8:49 AM 21.2 °F 10.9 °F 19.4 °F 93% 30.35 in 1.0 mi North 9.2 mph - N/A Snow Light Snow
8:53 AM 21.9 °F 11.7 °F 19.0 °F 89% 30.38 in 0.8 mi North 9.2 mph - N/A Snow Light Snow
9:12 AM 21.9 °F 13.4 °F 19.0 °F 89% 30.37 in 1.5 mi North 6.9 mph - N/A Snow Light Snow
9:21 AM 21.9 °F 9.8 °F 19.0 °F 89% 30.37 in 1.0 mi NNE 12.7 mph 17.3 mph N/A Snow Light Snow
9:31 AM 21.9 °F 12.5 °F 19.0 °F 89% 30.38 in 1.5 mi North 8.1 mph - N/A Snow Light Snow
9:53 AM 21.9 °F 11.7 °F 19.0 °F 89% 30.42 in 1.0 mi North 9.2 mph - N/A Snow Light Snow
10:26 AM 21.9 °F 11.0 °F 18.0 °F 85% 30.39 in 3.0 mi NNE 10.4 mph - N/A Snow Light Snow
10:34 AM 23.0 °F 13.1 °F 18.0 °F 81% 30.39 in 7.0 mi NNE 9.2 mph - N/A Snow Light Snow
10:53 AM 24.1 °F 13.7 °F 18.0 °F 77% 30.40 in 10.0 mi North 10.4 mph - N/A   Overcast
11:53 AM 25.0 °F 14.8 °F 17.1 °F 72% 30.39 in 10.0 mi North 10.4 mph - N/A   Overcast
12:53 PM 27.0 °F 18.7 °F 17.1 °F 66% 30.37 in 10.0 mi North 8.1 mph - N/A   Scattered Clouds
1:53 PM 27.0 °F 16.1 °F 12.9 °F 56% 30.35 in 10.0 mi North 12.7 mph 21.9 mph N/A   Clear
2:53 PM 28.0 °F 18.6 °F 12.9 °F 53% 30.33 in 10.0 mi NNE 10.4 mph - N/A   Scattered Clouds
3:53 PM 30.9 °F 23.5 °F 15.1 °F 52% 30.34 in 10.0 mi NNE 8.1 mph - N/A   Clear
4:53 PM 30.9 °F 23.5 °F 16.0 °F 54% 30.36 in 10.0 mi NNE 8.1 mph - N/A   Clear
5:53 PM 30.0 °F 26.5 °F 17.1 °F 59% 30.39 in 10.0 mi NNE 3.5 mph - N/A   Clear
6:53 PM 28.9 °F 21.1 °F 15.1 °F 56% 30.39 in 10.0 mi NNE 8.1 mph - N/A   Clear
7:53 PM 28.0 °F 19.3 °F 14.0 °F 56% 30.41 in 10.0 mi North 9.2 mph - N/A   Clear
8:53 PM 27.0 °F 19.5 °F 15.1 °F 61% 30.44 in 10.0 mi NNE 6.9 mph - N/A   Clear
9:53 PM 26.1 °F 19.4 °F 14.0 °F 60% 30.45 in 10.0 mi NNE 5.8 mph - N/A   Clear
10:53 PM 25.0 °F 20.7 °F 14.0 °F 63% 30.47 in 10.0 mi NNE 3.5 mph - N/A   Clear
11:53 PM 23.0 °F - 15.1 °F 72% 30.46 in 10.0 mi Calm Calm - N/A   Clear